Location: Mount Kobau Star Party
(49.1167°N, 119.7333°W)
Time: 07:41:15
(UTC-08:00)

BlueWalker 3 - Visible Passes

Search period start: 24 February 2024 00:00
Search period end: 05 March 2024 00:00
Orbit: 486 x 500 km, 53.2° (Epoch: 23 February)

Date Brightness Start Highest point End Pass type
(mag) Time Alt. Az. Time Alt. Az. Time Alt. Az.
24 Feb 2.6 18:35:44 10° W 18:39:24 46° N 18:42:10 16° ENE visible
24 Feb 3.6 20:14:24 10° WNW 20:16:39 31° NW 20:16:39 31° NW visible
25 Feb 2.6 18:11:54 10° W 18:15:34 46° N 18:19:13 10° ENE visible
25 Feb 2.6 19:50:35 10° WNW 19:53:49 48° NNW 19:53:49 48° NNW visible
26 Feb 2.2 19:26:44 10° WNW 19:30:26 51° NNE 19:30:59 46° NE visible
26 Feb 5.1 21:05:05 10° WNW 21:05:27 12° WNW 21:05:27 12° WNW visible
27 Feb 2.3 19:02:52 10° WNW 19:06:33 50° NNE 19:08:08 29° ENE visible
27 Feb 4.4 20:41:13 10° WNW 20:42:37 21° WNW 20:42:37 21° WNW visible
28 Feb 2.3 18:38:58 10° WNW 18:42:39 50° NNE 18:45:18 17° E visible
28 Feb 3.3 20:17:20 10° WNW 20:19:46 36° W 20:19:46 36° W visible
29 Feb 2.3 18:15:03 10° WNW 18:18:44 49° N 18:22:25 10° E visible
29 Feb 2.2 19:53:24 10° WNW 19:56:58 60° SW 19:56:58 60° SW visible
01 Mar 2.1 19:29:28 10° WNW 19:33:13 63° SSW 19:34:11 44° SSE visible
02 Mar 2.1 19:05:31 10° WNW 19:09:15 65° SSW 19:11:28 23° SE visible
02 Mar 4.7 20:45:00 10° W 20:45:57 13° WSW 20:45:57 13° WSW visible
03 Mar 2.1 18:41:32 10° WNW 18:45:17 67° SSW 18:48:48 11° SE visible
03 Mar 4.4 20:20:56 10° W 20:22:59 14° SW 20:23:18 14° SW visible
04 Mar 2.2 18:17:32 10° WNW 18:21:17 69° SSW 18:25:01 10° SE visible
04 Mar 4.4 19:56:51 10° W 19:59:00 15° SW 20:00:44 11° SSW visible
